Location: Claflin County Park
(44.8478°N, 87.5507°W)
Time: 03:14:16
(UTC+00:00)

USA 234 - Pass Details

Date: 19 March 2026
Orbit: 1102 x 1106 km, 123.0° (Epoch: 4 January)

Event Time Altitude Azimuth Distance (km) Brightness Sun altitude
Exits shadow 02:34:41 31° 53° (NE) 1,825 4.2 -27.1°
Maximum altitude 02:36:41 38° 18° (NNE) 1,618 4.2 -27.4°
Drops below altitude 10° 02:42:37 10° 313° (NW) 2,970 6.4 -28.3°
Sets 02:45:16 0° 306° (NW) 3,930 7.4 -28.7°
